Terminal Aerodrome Forecast
Issued by NWS Anchorage, AK

Home | Current Version | Previous Version | Text Only | Print | Product List | Glossary On
Versions: 1 2 3 4 5 6 7 8 9 10 11 12 13 14 15 16 17 18 19 20 21 22 23 24 25 26 27 28 29 30 31 32 33 34 35 36 37
000
FTAK31 PANC 281723
TAFANC
TAF
PANC 281723Z 2818/2924 01010KT P6SM FEW120 SCT200
      TEMPO 2818/2822 01010G20KT
     FM290900 06008KT P6SM SCT070
     FM291700 VRB04KT P6SM BKN080=

USA.gov is the U.S. government's official web portal to all federal, state and local government web resources and services.